Location: Ehrke Reservoir
(40.0279°N, 99.6641°W)
Time: 06:38:52
(UTC+00:00)

Cosmos 44 - Pass Details

Date: 20 January 2020
Orbit: 595 x 767 km, 65.1° (Epoch: 24 February)

Event Time Altitude Azimuth Distance (km) Brightness Sun altitude
Rises 01:06:14 0° 186° (S) 2,995 6.8 -16.0°
Reaches altitude 10° 01:08:46 10° 177° (S) 2,056 5.8 -16.5°
Maximum altitude 01:12:53 32° 114° (ESE) 1,086 3.9 -17.2°
Enters shadow 01:13:25 31° 100° (E) 1,106 3.8 -17.3°
